Date String (YYYY-MM-DD hh:mm:ss) UTC,Instrument flags,absolute air pressure of the measurement (hPa),sample flow rate (lpm),inlet stack bypass flow (lpm),air temperature of the measurement (°C),ambient temperature measured by the external sensor (°C),aerosol sample conditioner tube jacket temperature (°C),OPC LED temperature (°C),internal box temperature (°C),relative humidity of the measurement (%),span deviation,mass concentration of particles derived from Lorenz-Mie calculation of OPC scattering (μg/m³),mass concentration of particles derived from Lorenz-Mie calculation of OPC scattering (μg/m³),mass concentration of particles derived from Lorenz-Mie calculation of OPC scattering (μg/m³)
DateTimeUTC,F1_M11,P_M11,Q1_M11,Q2_M11,T1_M11,T2_M11,T3_M11,T4_M11,T5_M11,U1_M11,ZSPAN_M11,X0_M11,X2_M11,X1_M11
2024-05-02 13:00:00,SystemResetWarning,0827.2,5.00,000.00,022.1,021.5,000.0,030.5,023.9,016.5,0000.0,0012.20,0003.82,0002.47
2024-05-02 13:01:00,SystemResetWarning,0827.1,5.00,000.00,022.1,021.5,000.0,030.5,023.9,016.3,0000.0,0012.29,0003.80,0002.50
2024-05-02 13:02:00,SystemResetWarning,0827.1,5.00,000.00,022.1,021.5,000.0,030.5,023.9,016.2,0000.0,0012.53,0003.83,0002.55
2024-05-02 13:03:00,SystemResetWarning,0827.1,5.01,000.00,022.1,021.5,000.0,030.5,023.9,016.2,0000.0,0012.98,0003.87,0002.57
2024-05-02 13:04:00,SystemResetWarning,0827.1,5.00,000.00,022.1,021.5,000.0,030.5,023.9,016.1,0000.0,0012.75,0003.88,0002.59
2024-05-02 13:05:00,SystemResetWarning,0827.1,5.00,000.00,022.1,021.5,000.0,030.5,023.9,016.1,0000.0,0012.08,0003.88,0002.60
2024-05-02 13:06:00,SystemResetWarning,0827.1,5.00,000.00,022.1,021.5,000.0,030.5,023.9,015.9,0000.0,0011.21,0003.90,0002.61
2024-05-02 13:07:00,SystemResetWarning,0827.2,5.00,000.00,022.1,021.4,000.0,030.5,023.8,016.1,0000.0,0010.57,0003.87,0002.59
2024-05-02 13:08:00,SystemResetWarning,0827.1,5.00,000.00,022.1,021.4,000.0,030.5,023.8,016.1,0000.0,0010.45,0003.85,0002.59
2024-05-02 13:09:00,SystemResetWarning,0827.1,5.00,000.00,022.1,021.4,000.0,030.5,023.9,016.1,0000.0,0010.36,0003.84,0002.60
2024-05-02 13:10:00,SystemResetWarning,0827.1,5.00,000.00,022.1,021.4,000.0,030.5,023.8,016.2,0000.0,0010.72,0003.83,0002.59
2024-05-02 13:11:00,SystemResetWarning,0827.1,5.00,000.00,022.1,021.4,000.0,030.5,023.8,016.3,0000.0,0011.34,0003.86,0002.59
2024-05-02 13:12:00,SystemResetWarning,0827.2,5.00,000.00,022.0,021.3,000.0,030.5,023.8,016.1,0000.0,0011.06,0003.82,0002.57
2024-05-02 13:13:00,SystemResetWarning,0827.1,5.00,000.00,022.0,021.3,000.0,030.5,023.7,016.0,0000.0,0010.97,0003.79,0002.55
2024-05-02 13:14:00,SystemResetWarning,0827.1,5.00,000.00,022.0,021.3,000.0,030.5,023.7,016.0,0000.0,0010.70,0003.76,0002.55
2024-05-02 13:15:00,SystemResetWarning,0827.1,5.00,000.00,022.0,021.3,000.0,030.5,023.6,016.3,0000.0,0010.46,0003.74,0002.56
2024-05-02 13:16:00,SystemResetWarning,0827.2,5.00,000.00,022.0,021.2,000.0,030.4,023.7,016.2,0000.0,0010.65,0003.77,0002.57
2024-05-02 13:17:00,SystemResetWarning,0827.1,5.00,000.00,022.0,021.2,000.0,030.4,023.6,016.2,0000.0,0010.73,0003.77,0002.57
2024-05-02 13:18:00,SystemResetWarning,0827.2,5.00,000.00,021.9,021.2,000.0,030.4,023.6,016.3,0000.0,0011.45,0003.81,0002.57
2024-05-02 13:19:00,SystemResetWarning,0827.1,5.01,000.00,021.9,021.2,000.0,030.4,023.6,016.1,0000.0,0012.28,0003.87,0002.59
2024-05-02 13:20:00,SystemResetWarning,0827.1,5.00,000.00,021.9,021.1,000.0,030.4,023.5,015.9,0000.0,0012.89,0003.89,0002.60
2024-05-02 13:21:00,SystemResetWarning,0827.2,5.00,000.00,021.9,021.1,000.0,030.3,023.5,016.2,0000.0,0012.86,0003.94,0002.61
2024-05-02 13:22:00,SystemResetWarning,0827.2,5.00,000.00,021.8,021.1,000.0,030.3,023.4,016.2,0000.0,0012.23,0003.93,0002.61
2024-05-02 13:23:00,SystemResetWarning,0827.2,5.00,000.00,021.8,021.1,000.0,030.3,023.4,016.3,0000.0,0011.83,0003.97,0002.60
2024-05-02 13:24:00,SystemResetWarning,0827.2,5.00,000.00,021.8,021.1,000.0,030.3,023.4,016.5,0000.0,0011.90,0004.02,0002.63
2024-05-02 13:25:00,SystemResetWarning,0827.2,4.99,000.00,021.8,021.1,000.0,030.3,023.4,016.6,0000.0,0012.19,0004.09,0002.65
2024-05-02 13:26:00,SystemResetWarning,0827.2,5.00,000.00,021.8,021.1,000.0,030.3,023.4,016.5,0000.0,0013.60,0004.17,0002.68
2024-05-02 13:27:00,SystemResetWarning,0827.2,5.00,000.00,021.8,021.1,000.0,030.3,023.4,016.2,0000.0,0015.55,0004.23,0002.69
2024-05-02 13:28:00,SystemResetWarning,0827.2,5.00,000.00,021.8,021.0,000.0,030.3,023.4,016.0,0000.0,0016.16,0004.23,0002.72
2024-05-02 13:29:00,SystemResetWarning,0827.2,5.01,000.00,021.8,021.0,000.0,030.2,023.4,016.2,0000.0,0016.29,0004.25,0002.75
2024-05-02 13:30:00,SystemResetWarning,0827.3,5.01,000.00,021.7,021.0,000.0,030.2,023.4,016.0,0000.0,0016.28,0004.24,0002.78
2024-05-02 13:31:00,SystemResetWarning,0827.2,5.00,000.00,021.7,021.0,000.0,030.2,023.4,016.0,0000.0,0015.87,0004.25,0002.82
2024-05-02 13:32:00,SystemResetWarning,0827.3,5.00,000.00,021.7,021.0,000.0,030.2,023.4,016.2,0000.0,0016.58,0004.25,0002.84
2024-05-02 13:33:00,SystemResetWarning,0827.3,5.01,000.00,021.7,021.0,000.0,030.2,023.3,016.1,0000.0,0017.22,0004.32,0002.88
2024-05-02 13:34:00,SystemResetWarning,0827.4,5.00,000.00,021.7,021.0,000.0,030.2,023.4,016.3,0000.0,0017.90,0004.38,0002.93
2024-05-02 13:35:00,SystemResetWarning,0827.3,4.99,000.00,021.7,021.0,000.0,030.2,023.4,016.2,0000.0,0018.37,0004.34,0002.94
2024-05-02 13:36:00,SystemResetWarning,0827.4,5.01,000.00,021.7,021.0,000.0,030.2,023.4,016.4,0000.0,0019.25,0004.35,0002.95
2024-05-02 13:37:00,SystemResetWarning,0827.4,5.01,000.00,021.7,021.1,000.0,030.2,023.5,015.8,0000.0,0018.20,0004.26,0002.96
2024-05-02 13:38:00,SystemResetWarning,0827.4,4.98,000.00,021.7,021.1,000.0,030.2,023.5,015.8,0000.0,0016.13,0004.26,0002.96
2024-05-02 13:39:00,SystemResetWarning,0827.4,5.00,000.00,021.7,021.1,000.0,030.2,023.4,015.9,0000.0,0016.63,0004.27,0002.95
2024-05-02 13:40:00,SystemResetWarning,0827.4,5.01,000.00,021.7,021.1,000.0,030.1,023.5,015.8,0000.0,0016.15,0004.28,0002.96
2024-05-02 13:41:00,SystemResetWarning,0827.4,5.00,000.00,021.8,021.1,000.0,030.1,023.5,016.2,0000.0,0016.05,0004.32,0002.98
2024-05-02 13:42:00,SystemResetWarning,0827.4,5.01,000.00,021.8,021.2,000.0,030.1,023.5,016.1,0000.0,0016.55,0004.39,0002.97
2024-05-02 13:43:00,SystemResetWarning,0827.5,4.99,000.00,021.8,021.2,000.0,030.2,023.5,015.9,0000.0,0016.36,0004.42,0002.97
2024-05-02 13:44:00,SystemResetWarning,0827.7,5.00,000.00,021.8,021.3,000.0,030.2,023.6,015.9,0000.0,0015.45,0004.38,0002.95
2024-05-02 13:45:00,SystemResetWarning,0827.9,4.99,000.00,021.8,021.3,000.0,030.2,023.6,015.5,0000.0,0014.61,0004.29,0002.93
2024-05-02 13:46:00,SystemResetWarning,0827.4,5.00,000.00,021.8,021.3,000.0,030.2,023.7,015.1,0000.0,0013.66,0004.31,0002.94
2024-05-02 13:47:00,SystemResetWarning,0827.6,5.00,000.00,021.9,021.3,000.0,030.2,023.7,014.9,0000.0,0013.16,0004.35,0002.94
2024-05-02 13:48:00,SystemResetWarning,0827.5,5.00,000.00,021.9,021.4,000.0,030.2,023.7,014.5,0000.0,0013.18,0004.36,0002.93
2024-05-02 13:49:00,SystemResetWarning,0827.4,5.00,000.00,021.9,021.4,000.0,030.2,023.7,014.9,0000.0,0013.10,0004.33,0002.93
2024-05-02 13:50:00,SystemResetWarning,0827.4,5.00,000.00,021.9,021.4,000.0,030.3,023.8,015.3,0000.0,0012.01,0004.36,0002.93
2024-05-02 13:51:00,SystemResetWarning,0827.4,5.00,000.00,021.9,021.4,000.0,030.3,023.8,014.6,0000.0,0011.88,0004.36,0002.91
2024-05-02 13:52:00,SystemResetWarning,0827.5,4.99,000.00,021.9,021.4,000.0,030.3,023.8,014.3,0000.0,0011.75,0004.29,0002.88
2024-05-02 13:53:00,SystemResetWarning,0827.7,4.99,000.00,022.0,021.4,000.0,030.3,023.7,014.6,0000.0,0010.91,0004.24,0002.84
2024-05-02 13:54:00,SystemResetWarning,0827.5,5.00,000.00,022.0,021.4,000.0,030.3,023.8,014.2,0000.0,0010.35,0004.23,0002.83
2024-05-02 13:55:00,SystemResetWarning,0827.8,5.00,000.00,022.0,021.4,000.0,030.3,023.8,014.2,0000.0,0010.58,0004.29,0002.83
2024-05-02 13:56:00,SystemResetWarning,0827.8,5.00,000.00,022.0,021.4,000.0,030.3,023.7,014.2,0000.0,0011.05,0004.36,0002.83
2024-05-02 13:57:00,SystemResetWarning,0827.7,5.00,000.00,022.0,021.4,000.0,030.3,023.8,014.2,0000.0,0011.65,0004.38,0002.83
2024-05-02 13:58:00,SystemResetWarning,0827.4,5.01,000.00,022.0,021.4,000.0,030.3,023.8,014.1,0000.0,0011.63,0004.41,0002.85
2024-05-02 13:59:00,SystemResetWarning,0827.4,5.00,000.00,022.0,021.4,000.0,030.3,023.8,014.4,0000.0,0011.73,0004.40,0002.86
